TimeMST,TemperatureF,Dew PointF,Humidity,Sea Level PressureIn,VisibilityMPH,Wind Direction,Wind SpeedMPH,Gust SpeedMPH,PrecipitationIn,Events,Conditions,WindDirDegrees,DateUTC
12:53 AM,35.1,30.0,82,29.95,10.0,NNW,13.8,-,N/A,,Mostly Cloudy,330,2013-11-14 07:53:00
1:53 AM,36.0,30.0,79,29.97,10.0,NNW,6.9,-,0.00,,Overcast,340,2013-11-14 08:53:00
2:53 AM,34.0,32.0,92,29.98,10.0,West,8.1,-,0.00,,Overcast,280,2013-11-14 09:53:00
3:53 AM,34.0,32.0,92,30.00,10.0,NNW,8.1,-,0.00,,Overcast,330,2013-11-14 10:53:00
4:53 AM,34.0,30.0,85,29.99,10.0,WNW,11.5,-,N/A,,Overcast,300,2013-11-14 11:53:00
5:53 AM,28.9,26.1,89,30.04,10.0,WSW,9.2,-,N/A,,Clear,240,2013-11-14 12:53:00
6:53 AM,28.0,24.1,85,30.05,10.0,WSW,9.2,-,N/A,,Clear,250,2013-11-14 13:53:00
7:53 AM,30.9,25.0,79,30.04,10.0,WSW,6.9,-,N/A,,Clear,240,2013-11-14 14:53:00
8:53 AM,37.0,26.1,65,30.01,10.0,West,8.1,-,N/A,,Clear,280,2013-11-14 15:53:00
9:53 AM,42.1,24.1,49,29.97,10.0,West,17.3,26.5,N/A,,Clear,270,2013-11-14 16:53:00
10:53 AM,45.0,21.9,40,29.94,10.0,West,17.3,25.3,N/A,,Clear,260,2013-11-14 17:53:00
11:53 AM,46.0,19.9,35,29.89,10.0,WSW,16.1,21.9,N/A,,Clear,250,2013-11-14 18:53:00
12:53 PM,48.9,17.1,28,29.85,10.0,West,19.6,25.3,N/A,,Clear,270,2013-11-14 19:53:00
1:53 PM,48.9,14.0,25,29.80,10.0,West,13.8,19.6,N/A,,Clear,260,2013-11-14 20:53:00
2:53 PM,48.0,10.9,22,29.80,10.0,West,13.8,-,N/A,,Clear,260,2013-11-14 21:53:00
3:53 PM,43.0,16.0,34,29.81,10.0,WSW,15.0,-,N/A,,Clear,240,2013-11-14 22:53:00
4:53 PM,35.1,18.0,50,29.85,10.0,SW,8.1,-,N/A,,Clear,220,2013-11-14 23:53:00
5:53 PM,37.0,17.1,44,29.87,10.0,WSW,6.9,-,N/A,,Clear,240,2013-11-15 00:53:00
6:53 PM,36.0,15.1,43,29.87,10.0,WSW,15.0,-,N/A,,Clear,240,2013-11-15 01:53:00
7:53 PM,41.0,12.0,31,29.81,10.0,SSW,6.9,-,N/A,,Clear,200,2013-11-15 02:53:00
8:53 PM,37.0,17.1,44,29.76,10.0,SSW,13.8,-,N/A,,Clear,200,2013-11-15 03:53:00
9:53 PM,30.9,19.0,61,29.73,10.0,SSE,10.4,-,N/A,,Clear,150,2013-11-15 04:53:00
10:53 PM,30.0,18.0,61,29.70,10.0,South,8.1,-,N/A,,Clear,190,2013-11-15 05:53:00
11:53 PM,30.0,17.1,59,29.68,10.0,SSE,6.9,-,N/A,,Clear,150,2013-11-15 06:53:00